Погода в Киеве

Россия / Тюменская область     56°47′08″N   65°57′38″E
темп.,
°C
ветер,
м/с
пор.,
м/с
влажн.,
%
обл.,
%
осадки,
мм/ч
давл.,
гПа
погр.,
м
15 апреля, чт
чт1523:00+12з410885 0.0 1026176
02:00+11з339037 0.0 102525
05:00+9зюз348853 0.0 102542
08:00+12зюз48795 0.0 1024221
11:00+17зюз58585 0.0 1023676
14:00+20зюз79535 0.0 10211212
17:00+20зюз69525 0.0 10191377
20:00+15зюз410675 0.0 1018168
16 апреля, пт
пт1623:00+12зюз4116899 0.0 1017199
02:00+10з410775 0.0 1016194
05:00+10с6986100 0.0 1018493
08:00+5ссв71089100 0.1 1022730
11:00+8ссв685085 0.1 10241293
14:00+9ссв673821 0.0 10251558
17:00+9ссв55355 0.0 10251765
20:00+6св34500 0.0 102649
17 апреля, сб
сб1723:00+3всв36645 0.0 1026132
02:00+1вюв22685 0.0 102610
05:00+1юз22690 0.0 102514
08:00+4зсз36573 0.0 1025285
11:00+8сз46425 0.0 10251490
14:00+9сз45365 0.0 10241995
17:00+10зсз343116 0.0 10232232
20:00+7зсз2247100 0.0 102131
18 апреля, вс
вс1823:00+5юз485988 0.0 1019153
02:00+5зюз61260100 0.0 1016381
05:00+3з5117399 0.0 1014473
08:00+4зсз71271100 0.0 1012887
11:00+4ссз9134898 0.4 10141634
14:00+2с11144078 0.0 10191822
17:00+1с10123018 0.0 10232008
20:00−3ссв812420 0.0 10271502
19 апреля, пн
пн1923:00−4с613455 0.0 10291572
02:00−5с510495 0.0 10311424
05:00−6с510495 0.0 10321322
08:00−4с7103777 0.0 10341618
11:00−2с6835100 0.0 10332145
14:000с6829100 0.0 10332411
17:00+1с6830100 0.0 10332289
20:00−2с224640 0.0 103312